Regional Weather Roundup
Issued by NWS Burlington, VT

Current Version | Previous Version | Text Only | Print | Product List | Glossary Off
Versions: 1 2 3 4 5 6 7 8 9 10 11 12 13 14 15 16 17 18 19 20 21 22 23 24 25 26 27 28 29 30 31 32 33 34 35 36 37 38 39 40 41 42 43 44 45 46 47 48 49 50

000
ASUS41 KBTV 260310
RWRBTV
VERMONT REGIONAL WEATHER ROUNDUP
NATIONAL WEATHER SERVICE BURLINGTON VT
1100 PM EDT SAT MAR 25 2017

NOTE: "FAIR" INDICATES FEW OR NO CLOUDS BELOW 12,000 FEET WITH NO
SIGNIFICANT WEATHER AND/OR OBSTRUCTIONS TO VISIBILITY.

* THESE REPORTS ARE NOT UNDER NWS QUALITY CONTROL AND/OR DO NOT
  REPORT WEATHER SUCH AS PRECIPITATION AND FOG.

VTZ001>019-260400-
_____VERMONT_____


CITY           SKY/WX    TMP DP  RH WIND       PRES   REMARKS
BURLINGTON     CLEAR     26  16  65 N3        30.48R
MONTPELIER     CLEAR     23  21  92 CALM      30.47R
MORRISVILLE    CLOUDY    17  14  88 CALM      30.48R
ST. JOHNSBURY*   N/A     26  19  74 MISG      30.45R
LYNDONVILLE*   FAIR      24  13  63 NW5       30.45R WCI  18
MIDDLEBURY*    FAIR      25  19  77 CALM      30.46S
RUTLAND*       CLEAR     25  22  88 CALM      30.44R
SPRINGFIELD    CLEAR     30  24  78 CALM      30.44R
HIGHGATE*      FAIR      18  17  95 CALM      30.50R
NEWPORT*       FAIR      19  10  70 CALM      30.46R
BENNINGTON     CLOUDY    30  26  85 CALM      30.41R
SUTTON*          N/A     21 N/A N/A MISG        N/A

_____LAKE CHAMPLAIN_____


CITY           SKY/WX    TMP DP  RH WIND       PRES   REMARKS
BURTON ISLAND*   N/A     27  19  74 E2          N/A
COLCHESTER RF*   N/A     32  27  80 NW7         N/A  WCI  26
DIAMOND ISL*     N/A     32  21  64 NW6         N/A  WCI  26

$$

NYZ007-026>031-035-052-083-087-260400-
_____NORTHERN NEW YORK_____


CITY           SKY/WX    TMP DP  RH WIND       PRES   REMARKS
PLATTSBURGH    CLEAR     21  18  88 CALM      30.48F
SARANAC LAKE   CLOUDY    16  15  96 N3        30.39R
MASSENA        CLOUDY    21  18  88 CALM      30.48S
POTSDAM*       CLEAR     27  27 100 E3        30.45F
WATERTOWN      CLOUDY    29  27  92 NE9       30.42F WCI  20
FT DRUM        CLOUDY    29  25  84 E7        30.40F WCI  22
ALBANY         CLOUDY    34  26  72 N8        30.46R WCI  27
GLENS FALLS    CLOUDY    30  24  78 CALM      30.46R

$$
NHZ002-005-011-260400-
_____NEW HAMPSHIRE_____


CITY           SKY/WX    TMP DP  RH WIND       PRES   REMARKS
LEBANON        CLEAR     26  25  96 N5        30.43R WCI  20
KEENE          CLOUDY    28  27  93 CALM      30.43R FOG
MT WASHINGTON  PTCLDY    14 -22  18 N41G48      N/A  WCI -10
PLYMOUTH       FAIR      29  24  78 CALM      30.42R
WHITEFIELD     CLEAR     21  14  74 S3        30.43R

$$

_____REGIONAL QUEBEC LOCATIONS_____


CITY           SKY/WX    TMP DP  RH WIND       PRES   REMARKS
MONTREAL       PTCLDY    25  12  58 E3        30.50R
QUEBEC CITY    CLEAR     23   1  39 N10       30.49S WCI  12
SHERBROOKE     CLEAR     19   7  58 N3        30.44R

_____REGIONAL ONTARIO LOCATIONS_____


CITY           SKY/WX    TMP DP  RH WIND       PRES   REMARKS
OTTAWA         CLEAR     27  18  69 N5        30.46S WCI  21

______KEY______
VSB  - VISIBILITY IN MILES
WCI  - WIND CHILL INDEX
HX   - HEAT INDEX
$$
NNNN




USA.gov is the U.S. government's official web portal to all federal, state and local government web resources and services.